Weather in Derazhnya

Ukraine / Khmelnitsky District     49°16′08″N   27°25′49″E
temp.,
°C
wind,
m/s
gust,
m/s
humid.,
%
clouds,
%
prec.,
mm/h
press.,
hPa
HPBL,
m
17 october, sun
sun1700:00+5nnw377898 0.0 1021139
03:00+4n359239 0.0 102282
06:00+3nnw339124 0.0 102235
09:00+8nnw2465100 0.0 1021479
12:00+9nw3456100 0.0 10221180
15:00+11nw344819 0.0 10201320
18:00+7nw22615 0.0 102123
21:00+3n227824 0.0 102221
18 october, mon
mon1800:00+3nw1180100 0.0 102310
03:00+3w228188 0.0 102319
06:00+3w3482100 0.0 102261
09:00+5w3669100 0.0 1023165
12:00+10wnw6752100 0.0 1022949
15:00+10wnw6854100 0.0 10211364
18:00+7wnw5878100 0.0 1022865
21:00+7nw51081100 0.1 1023947
19 october, tue
tue1900:00+7w5107698 0.0 1024455
03:00+7wnw5118298 0.0 1024556
06:00+6nnw6991100 1.3 1025885
09:00+4nnw26837 1.4 1028261
12:00+9nnw455351 0.0 10281337
15:00+10nw56375 0.0 10271614
18:00+7nnw334451 0.0 102828
21:00+4n1151100 0.0 102910
20 october, wed
wed2000:00+4s2251100 0.0 102910
03:00+4s3452100 0.0 102866
06:00+4s35585 0.0 102775
09:00+6s496752 0.0 1026192
12:00+12s695444 0.0 1024540
15:00+15ssw784492 0.0 1021848
18:00+12ssw495395 0.0 1020214
21:00+12s41153100 0.0 1019274
21 october, thu
thu2100:00+11ssw4115792 0.0 1018218
03:00+9ssw4667100 0.0 101890
06:00+8s4870100 0.0 1016139
09:00+9s51068100 0.0 1015233
12:00+15ssw6945100 0.0 1014445
15:00+17ssw6837100 0.0 1012635
18:00+14ssw4845100 0.0 1012130
21:00+11wsw475811 0.0 1012115